| time (UTC) | temp F | wind direction | speed knots | gust knots | rain 1hr in | rain 24hr in | rain mn in | humidity % | barometer mb |
| 20260504081601 | 50 | 64 | 12.2 | 17.4 | 0.00 | 0.00 | 0.00 | 50 | 1015.7 |
| 20260504050023 | 57 | 64 | 17.4 | 23.5 | 0.00 | 0.00 | 0.00 | 37 | 1010.7 |
| 20260504044533 | 58 | 58 | 9.6 | 16.5 | 0.00 | 0.00 | 0.00 | 37 | 1010.3 |
| 20260504043029 | 59 | 70 | 10.4 | 16.5 | 0.00 | 0.00 | 0.00 | 35 | 1009.8 |
| 20260504041520 | 59 | 69 | 10.4 | 18.2 | 0.00 | 0.00 | 0.00 | 34 | 1009.6 |
| 20260504040022 | 60 | 72 | 13.9 | 20.0 | 0.00 | 0.00 | 0.00 | 35 | 1009.1 |
| 20260504034520 | 60 | 63 | 9.6 | 17.4 | 0.00 | 0.00 | 0.00 | 34 | 1009.0 |
| 20260504033018 | 61 | 69 | 12.2 | 18.2 | 0.00 | 0.00 | 0.00 | 32 | 1008.6 |
| 20260504031519 | 63 | 62 | 10.4 | 18.2 | 0.00 | 0.00 | 0.00 | 29 | 1008.4 |
| 20260504030016 | 64 | 63 | 8.7 | 15.6 | 0.00 | 0.00 | 0.00 | 25 | 1008.2 |
| 20260504024515 | 66 | 60 | 7.0 | 12.2 | 0.00 | 0.00 | 0.00 | 22 | 1007.8 |
| 20260504023014 | 67 | 55 | 6.1 | 11.3 | 0.00 | 0.00 | 0.00 | 21 | 1007.9 |
| 20260504021515 | 68 | 55 | 6.1 | 9.6 | 0.00 | 0.00 | 0.00 | 21 | 1007.9 |
| 20260504020012 | 69 | 51 | 7.0 | 10.4 | 0.00 | 0.00 | 0.00 | 20 | 1008.0 |
| 20260504014511 | 70 | 51 | 9.6 | 13.0 | 0.00 | 0.00 | 0.00 | 20 | 1007.9 |
| 20260504013017 | 72 | 45 | 10.4 | 14.8 | 0.00 | 0.00 | 0.00 | 19 | 1007.9 |
| 20260504011509 | 72 | 49 | 7.8 | 14.8 | 0.00 | 0.00 | 0.00 | 19 | 1007.9 |
| 20260504010007 | 73 | 54 | 11.3 | 14.8 | 0.00 | 0.00 | 0.00 | 18 | 1007.9 |
| 20260504004513 | 75 | 34 | 9.6 | 14.8 | 0.00 | 0.00 | 0.00 | 16 | 1008.1 |
| 20260504003003 | 75 | 36 | 7.0 | 11.3 | 0.00 | 0.00 | 0.00 | 17 | 1008.2 |
| 20260504001504 | 75 | 344 | 5.2 | 9.6 | 0.00 | 0.00 | 0.00 | 16 | 1008.3 |
| 20260503234558 | 75 | 6 | 5.2 | 7.8 | 0.00 | 0.00 | 0.00 | 17 | 1008.4 |
| 20260503233055 | 75 | 346 | 6.1 | 11.3 | 0.00 | 0.00 | 0.00 | 16 | 1008.6 |
| 20260503231556 | 75 | 322 | 5.2 | 7.8 | 0.00 | 0.00 | 0.00 | 16 | 1008.8 |
| 20260503230103 | 75 | 348 | 4.3 | 9.6 | 0.00 | 0.00 | 0.00 | 16 | 1008.9 |
| 20260503224557 | 75 | 15 | 7.8 | 11.3 | 0.00 | 0.00 | 0.00 | 16 | 1009.1 |
| 20260503223048 | 74 | 357 | 6.1 | 10.4 | 0.00 | 0.00 | 0.00 | 17 | 1009.2 |
| 20260503221546 | 75 | 309 | 5.2 | 9.6 | 0.00 | 0.00 | 0.00 | 15 | 1009.4 |
| 20260503220044 | 74 | 323 | 3.5 | 10.4 | 0.00 | 0.00 | 0.00 | 17 | 1009.6 |
| 20260503214543 | 74 | 340 | 6.1 | 11.3 | 0.00 | 0.00 | 0.00 | 19 | 1009.7 |
| 20260503213038 | 73 | 11 | 4.3 | 8.7 | 0.00 | 0.00 | 0.00 | 16 | 1010.1 |
| 20260503211548 | 73 | 8 | 4.3 | 10.4 | 0.00 | 0.00 | 0.00 | 16 | 1010.3 |
| 20260503210033 | 72 | 310 | 3.5 | 8.7 | 0.00 | 0.00 | 0.00 | 18 | 1010.5 |
| 20260503204533 | 72 | 325 | 3.5 | 10.4 | 0.00 | 0.00 | 0.00 | 18 | 1010.8 |
| 20260503203027 | 72 | 326 | 6.1 | 10.4 | 0.00 | 0.00 | 0.00 | 18 | 1011.0 |
| 20260503201525 | 72 | 325 | 5.2 | 10.4 | 0.00 | 0.00 | 0.00 | 18 | 1011.1 |
| 20260503200033 | 71 | 356 | 5.2 | 10.4 | 0.00 | 0.00 | 0.00 | 19 | 1011.2 |
| 20260503194521 | 71 | 331 | 6.1 | 9.6 | 0.00 | 0.00 | 0.00 | 21 | 1011.4 |
| 20260503193028 | 71 | 338 | 6.1 | 8.7 | 0.00 | 0.00 | 0.00 | 21 | 1011.6 |
| 20260503191518 | 70 | 297 | 3.5 | 7.8 | 0.00 | 0.00 | 0.00 | 21 | 1011.8 |
| 20260503190014 | 70 | 325 | 5.2 | 11.3 | 0.00 | 0.00 | 0.00 | 21 | 1012.0 |
| 20260503184513 | 70 | 299 | 6.1 | 9.6 | 0.00 | 0.00 | 0.00 | 21 | 1012.1 |
| 20260503183008 | 70 | 285 | 6.1 | 11.3 | 0.00 | 0.00 | 0.00 | 23 | 1012.4 |
| 20260503181506 | 69 | 356 | 5.2 | 10.4 | 0.00 | 0.00 | 0.00 | 22 | 1012.7 |
| 20260503180002 | 68 | 337 | 7.0 | 10.4 | 0.00 | 0.00 | 0.00 | 23 | 1012.9 |
| 20260503174601 | 68 | 350 | 5.2 | 10.4 | 0.00 | 0.00 | 0.00 | 24 | 1013.0 |
| 20260503173106 | 66 | 351 | 7.0 | 11.3 | 0.00 | 0.00 | 0.00 | 29 | 1013.2 |
| 20260503171553 | 64 | 326 | 4.3 | 7.0 | 0.00 | 0.00 | 0.00 | 31 | 1013.3 |